AJISAI (EGS) (16908 NORAD) Tracking and Keplerian Element Data

This shows tracking and keplerian element data for the satellite.

Feedback or suggestion? Click here.




ElementValue
Catalog16908
NameAJISAI (EGS)
Epoch Orbit21488
Epoch Day225.19963208
Epoch Year2020
RAAN232.277
Inclination50.0065
Eccentricity0.0011359
Argument of Perigee146.2588
Mean Anonmoly132.0157
Mean Motion12.44492457
Decay Rate-8E-07
L11 16908U 86061A 20225.19963208 -.00000080 00000-0 12397-3 0 9998
L22 16908 50.0065 232.2770 0011359 146.2588 132.0157 12.44492457214882

Live tracking and technical data element details for AJISAI (EGS) (NORAD 16908). AJISAI (EGS) can be tracked NOW for your location showing map with azimuth and elevation plus other details from your city location.

Track the satellite on the map from your city or location and see movement details for azimuth, elevation, latitude, longitude, range, height, and movement on the map or in text.







IsCatalogInMostPopularTable: catalog: 16908, numindb: 490
Update: records affected: 1



GetName: 16908 AJISAI (EGS)

Hit Count: updated at: Wed, 12 Aug 2020 21:35:11 GMT